SCP
0 0 1 1 1 2 1 1 1 1 2 2 1 2 1 0 0 0 0 0 0 -0 -0 -0 -0 -0 -0 -0 -0 -0 -0 -0
0 0 1 1 1 2 2 2 2 2 2 2 2 2 1 1 0 0 0 0 0 -0 -0 -0 0 0 0 0 0 0 -0 -0
0 0 1 1 1 1 2 2 2 2 2 2 2 2 2 1 0 0 0 0 0 0 0 0 0 0 0 0 0 0 0 0
0 0 0 2 1 1 2 2 2 2 2 2 2 2 2 1 1 1 0 0 0 0 0 0 0 0 0 0 0 0 0 0
0 0 0 1 1 2 1 1 2 2 2 2 3 2 2 1 1 1 1 0 0 0 0 0 0 0 0 0 0 0 0 0
0 0 0 1 2 1 2 2 2 1 2 2 3 2 2 2 2 1 1 1 0 0 0 0 0 0 0 0 0 0 0 0
0 0 0 0 0 1 2 2 2 1 2 2 2 2 2 2 2 1 1 1 1 0 0 0 0 0 0 0 0 0 0 0
0 0 0 0 0 1 2 2 1 1 2 2 1 2 2 1 1 1 1 1 1 0 0 0 0 0 0 0 0 0 0 0
0 0 0 0 0 1 1 2 2 2 2 2 2 1 1 1 1 1 1 1 1 1 1 0 0 0 1 1 0 0 0 0
0 0 0 0 0 0 1 2 2 2 3 3 3 3 1 1 1 1 2 2 1 1 1 1 1 1 1 1 1 1 0 0
0 0 0 0 0 0 1 3 4 4 4 3 2 3 2 1 2 2 1 2 2 1 1 2 2 2 1 1 1 1 1 0
0 0 0 0 0 0 0 2 3 4 4 4 3 4 3 2 2 2 1 1 1 2 1 1 1 0 1 1 2 2 1 0
0 0 0 0 0 0 0 1 1 1 3 4 4 2 2 1 1 1 1 1 1 0 2 1 1 1 1 2 2 1 1 2
0 0 0 0 0 0 0 0 0 0 0 0 1 1 1 1 1 1 1 1 1 1 1 1 1 1 1 1 2 1 0 0
0 -0 0 0 0 0 0 0 0 0 0 0 0 0 0 0 0 0 0 0 1 1 1 1 1 1 1 0 0 0 0 0
-0 0 0 0 0 0 0 0 0 0 0 0 0 0 0 0 0 0 0 0 0 0 0 1 1 1 1 1 1 1 1 0
-0 -0 0 0 0 0 0 0 0 0 0 0 0 0 0 0 0 0 0 0 0 0 0 0 1 1 1 1 1 1 1 1
0 0 0 0 0 0 0 0 0 0 0 0 0 0 0 0 0 0 0 0 0 0 0 0 0 0 1 1 1 1 1 1
0 0 0 0 0 0 0 0 0 0 0 0 0 0 0 0 0 0 0 0 0 0 0 0 0 0 0 1 0 0 1 1
0 0 0 0 0 -0 0 0 0 0 0 0 0 0 0 0 0 0 0 0 0 0 0 0 0 0 0 0 0 0 0 0
Wind_Speed_500mb
52 50 45 51 63 66 69 70 73 74 73 72 71 70 68 66 64 63 60 58 54 49 44 39 34 29 23 18 14 13 12 10
48 51 50 52 53 62 68 72 71 75 77 78 77 75 74 71 70 67 65 61 57 52 47 41 35 29 23 19 16 14 10 11
60 53 48 49 46 54 62 68 70 71 77 79 81 82 80 78 74 71 67 64 58 54 49 43 38 32 27 21 16 12 11 12
60 58 50 54 49 46 54 63 67 68 74 77 83 85 85 82 78 73 69 65 61 56 52 47 42 36 29 25 22 19 17 16
60 64 61 55 49 50 49 53 62 65 69 73 79 85 85 83 80 74 70 67 63 60 54 50 43 36 30 26 25 25 21 21
53 64 72 63 54 50 51 53 55 62 66 73 76 76 77 73 79 73 70 68 64 61 58 54 47 42 37 36 32 31 27 26
61 61 71 66 62 55 54 52 53 52 60 70 77 75 61 64 72 79 75 71 68 63 62 57 51 49 45 41 38 36 33 29
69 67 68 71 69 66 60 58 57 57 64 72 78 76 82 70 73 71 73 72 73 68 65 64 61 54 51 47 45 37 39 36
65 66 73 80 81 78 69 66 66 66 67 75 75 74 65 65 68 69 67 61 61 70 72 72 66 60 54 45 38 30 34 37
55 60 60 73 80 79 79 73 70 68 68 72 74 68 56 57 65 68 66 62 74 61 60 61 65 64 53 48 31 23 32 39
51 58 66 66 79 79 75 73 73 72 67 67 71 61 47 57 57 58 66 69 84 75 60 48 51 56 58 43 25 23 31 41
32 37 48 61 69 76 72 66 67 69 69 64 73 63 53 56 60 62 60 60 70 71 88 84 85 70 72 50 23 33 22 35
40 40 35 45 57 63 63 64 63 63 64 61 61 61 60 64 63 61 58 64 73 69 66 78 84 86 68 67 41 54 65 53
49 55 49 50 54 67 68 68 65 62 59 58 55 52 52 54 55 62 67 62 62 62 72 67 67 70 72 67 65 86 92 105
54 63 66 59 62 74 79 73 71 69 65 56 48 42 39 38 40 44 46 52 70 68 62 61 56 57 70 64 69 68 80 78
44 53 65 58 55 76 89 84 77 66 55 39 33 34 35 35 31 34 36 38 41 46 45 52 58 55 54 54 57 60 62 80
31 36 31 36 46 67 87 77 57 44 34 29 29 28 26 22 22 24 26 27 31 33 35 33 33 35 35 39 45 55 59 61
41 45 21 6 29 62 64 57 46 35 27 25 24 20 20 23 22 23 24 24 26 23 23 25 27 28 27 26 29 34 42 53
30 32 41 35 1 24 53 54 47 41 34 32 31 27 19 27 29 27 29 29 26 25 24 22 18 12 7 10 18 24 31 36
45 44 34 35 30 16 21 44 56 53 47 45 42 38 32 33 34 29 29 28 24 19 17 17 17 12 8 9 13 18 24 30
Wind_Direction_500mb
217 210 226 222 209 210 210 211 208 203 204 205 205 202 203 202 201 201 197 197 197 198 200 201 202 207 208 214 228 247 253 254
233 222 220 217 218 215 216 215 212 208 207 209 209 209 207 207 206 205 204 203 202 203 205 208 210 216 220 230 246 251 227 219
233 219 217 213 214 216 219 218 218 216 213 213 215 215 214 213 211 210 209 209 209 210 211 214 216 222 228 235 235 246 227 218
223 216 220 215 209 209 212 215 218 218 221 220 222 222 222 220 217 215 216 215 215 216 220 219 223 228 235 238 238 245 251 246
224 225 214 209 210 206 201 211 219 218 221 225 226 225 227 225 226 223 223 223 221 223 226 230 230 235 239 242 244 251 256 261
247 231 213 211 207 209 209 207 212 219 224 226 226 230 230 240 234 232 231 232 231 232 233 235 237 240 243 249 254 258 260 265
265 244 228 220 210 211 208 215 221 220 222 228 230 224 222 231 242 235 232 237 239 238 242 243 244 244 246 251 256 266 271 277
261 258 241 225 216 217 219 225 226 230 226 230 231 230 224 224 226 236 243 241 245 244 244 246 246 242 246 250 258 265 278 284
255 243 245 228 217 215 222 224 226 225 226 228 229 230 227 218 220 229 235 241 255 255 248 250 249 244 244 248 255 264 281 291
259 245 249 230 226 220 218 222 224 227 230 229 231 234 229 221 226 225 227 235 253 257 252 249 255 256 243 236 239 275 290 294
271 251 246 230 225 228 224 222 220 224 229 230 233 234 229 215 231 233 236 242 244 241 249 248 248 243 242 234 210 266 290 300
302 280 255 232 225 219 220 219 218 221 227 230 236 238 237 227 231 232 241 244 245 243 245 247 249 245 234 236 215 249 254 296
287 284 281 256 229 221 219 216 217 220 225 229 235 240 242 246 241 237 233 240 248 262 253 244 235 244 245 247 252 250 262 258
286 281 272 256 247 232 222 219 218 218 219 224 229 235 235 238 240 236 235 235 238 244 238 235 238 234 235 244 243 249 263 248
289 281 271 257 244 237 227 215 211 210 210 213 217 220 224 227 230 234 239 242 240 239 237 234 238 247 252 246 243 249 261 263
321 295 267 253 247 231 219 209 208 204 203 210 227 244 253 256 242 231 228 228 231 233 235 234 234 239 244 248 256 262 262 261
10 346 296 250 233 228 210 200 194 201 208 225 241 243 244 246 233 222 210 205 209 213 214 222 225 230 236 238 247 251 255 255
30 30 26 291 227 203 190 191 203 211 213 213 211 222 235 231 228 223 210 199 192 188 193 202 215 225 231 240 237 240 245 246
327 340 3 26 71 223 206 200 204 206 205 208 209 218 232 233 230 223 214 202 190 187 189 190 186 182 205 251 260 259 259 264
319 315 320 327 351 354 260 232 219 218 217 223 229 226 220 222 220 217 210 210 215 216 211 200 200 209 251 286 302 289 285 290
Wind_Speed_850mb
52 50 45 51 63 66 69 70 73 74 73 72 71 70 68 66 64 63 60 58 54 49 44 39 34 29 23 18 14 13 12 10
48 51 50 52 53 62 68 72 71 75 77 78 77 75 74 71 70 67 65 61 57 52 47 41 35 29 23 19 16 14 10 11
60 53 48 49 46 54 62 68 70 71 77 79 81 82 80 78 74 71 67 64 58 54 49 43 38 32 27 21 16 12 11 12
60 58 50 54 49 46 54 63 67 68 74 77 83 85 85 82 78 73 69 65 61 56 52 47 42 36 29 25 22 19 17 16
60 64 61 55 49 50 49 53 62 65 69 73 79 85 85 83 80 74 70 67 63 60 54 50 43 36 30 26 25 25 21 21
53 64 72 63 54 50 51 53 55 62 66 73 76 76 77 73 79 73 70 68 64 61 58 54 47 42 37 36 32 31 27 26
61 61 71 66 62 55 54 52 53 52 60 70 77 75 61 64 72 79 75 71 68 63 62 57 51 49 45 41 38 36 33 29
69 67 68 71 69 66 60 58 57 57 64 72 78 76 82 70 73 71 73 72 73 68 65 64 61 54 51 47 45 37 39 36
65 66 73 80 81 78 69 66 66 66 67 75 75 74 65 65 68 69 67 61 61 70 72 72 66 60 54 45 38 30 34 37
55 60 60 73 80 79 79 73 70 68 68 72 74 68 56 57 65 68 66 62 74 61 60 61 65 64 53 48 31 23 32 39
51 58 66 66 79 79 75 73 73 72 67 67 71 61 47 57 57 58 66 69 84 75 60 48 51 56 58 43 25 23 31 41
32 37 48 61 69 76 72 66 67 69 69 64 73 63 53 56 60 62 60 60 70 71 88 84 85 70 72 50 23 33 22 35
40 40 35 45 57 63 63 64 63 63 64 61 61 61 60 64 63 61 58 64 73 69 66 78 84 86 68 67 41 54 65 53
49 55 49 50 54 67 68 68 65 62 59 58 55 52 52 54 55 62 67 62 62 62 72 67 67 70 72 67 65 86 92 105
54 63 66 59 62 74 79 73 71 69 65 56 48 42 39 38 40 44 46 52 70 68 62 61 56 57 70 64 69 68 80 78
44 53 65 58 55 76 89 84 77 66 55 39 33 34 35 35 31 34 36 38 41 46 45 52 58 55 54 54 57 60 62 80
31 36 31 36 46 67 87 77 57 44 34 29 29 28 26 22 22 24 26 27 31 33 35 33 33 35 35 39 45 55 59 61
41 45 21 6 29 62 64 57 46 35 27 25 24 20 20 23 22 23 24 24 26 23 23 25 27 28 27 26 29 34 42 53
30 32 41 35 1 24 53 54 47 41 34 32 31 27 19 27 29 27 29 29 26 25 24 22 18 12 7 10 18 24 31 36
45 44 34 35 30 16 21 44 56 53 47 45 42 38 32 33 34 29 29 28 24 19 17 17 17 12 8 9 13 18 24 30
Wind_Direction_850mb
217 210 226 222 209 210 210 211 208 203 204 205 205 202 203 202 201 201 197 197 197 198 200 201 202 207 208 214 228 247 253 254
233 222 220 217 218 215 216 215 212 208 207 209 209 209 207 207 206 205 204 203 202 203 205 208 210 216 220 230 246 251 227 219
233 219 217 213 214 216 219 218 218 216 213 213 215 215 214 213 211 210 209 209 209 210 211 214 216 222 228 235 235 246 227 218
223 216 220 215 209 209 212 215 218 218 221 220 222 222 222 220 217 215 216 215 215 216 220 219 223 228 235 238 238 245 251 246
224 225 214 209 210 206 201 211 219 218 221 225 226 225 227 225 226 223 223 223 221 223 226 230 230 235 239 242 244 251 256 261
247 231 213 211 207 209 209 207 212 219 224 226 226 230 230 240 234 232 231 232 231 232 233 235 237 240 243 249 254 258 260 265
265 244 228 220 210 211 208 215 221 220 222 228 230 224 222 231 242 235 232 237 239 238 242 243 244 244 246 251 256 266 271 277
261 258 241 225 216 217 219 225 226 230 226 230 231 230 224 224 226 236 243 241 245 244 244 246 246 242 246 250 258 265 278 284
255 243 245 228 217 215 222 224 226 225 226 228 229 230 227 218 220 229 235 241 255 255 248 250 249 244 244 248 255 264 281 291
259 245 249 230 226 220 218 222 224 227 230 229 231 234 229 221 226 225 227 235 253 257 252 249 255 256 243 236 239 275 290 294
271 251 246 230 225 228 224 222 220 224 229 230 233 234 229 215 231 233 236 242 244 241 249 248 248 243 242 234 210 266 290 300
302 280 255 232 225 219 220 219 218 221 227 230 236 238 237 227 231 232 241 244 245 243 245 247 249 245 234 236 215 249 254 296
287 284 281 256 229 221 219 216 217 220 225 229 235 240 242 246 241 237 233 240 248 262 253 244 235 244 245 247 252 250 262 258
286 281 272 256 247 232 222 219 218 218 219 224 229 235 235 238 240 236 235 235 238 244 238 235 238 234 235 244 243 249 263 248
289 281 271 257 244 237 227 215 211 210 210 213 217 220 224 227 230 234 239 242 240 239 237 234 238 247 252 246 243 249 261 263
321 295 267 253 247 231 219 209 208 204 203 210 227 244 253 256 242 231 228 228 231 233 235 234 234 239 244 248 256 262 262 261
10 346 296 250 233 228 210 200 194 201 208 225 241 243 244 246 233 222 210 205 209 213 214 222 225 230 236 238 247 251 255 255
30 30 26 291 227 203 190 191 203 211 213 213 211 222 235 231 228 223 210 199 192 188 193 202 215 225 231 240 237 240 245 246
327 340 3 26 71 223 206 200 204 206 205 208 209 218 232 233 230 223 214 202 190 187 189 190 186 182 205 251 260 259 259 264
319 315 320 327 351 354 260 232 219 218 217 223 229 226 220 222 220 217 210 210 215 216 211 200 200 209 251 286 302 289 285 290